Kerkyra, Greece

8:46 PM EEST on October 19, 2018 (GMT +0300)
Ioannis Kapodistrias

Weather History for LGKR - June, 2018

Change the Weather History Date:

Thursday, June 14, 2018

  Actual Average Record
Temperature  
Mean Temperature 76 °F -  
Max Temperature 84 °F 85 °F 98 °F (2003)
Min Temperature 69 °F 63 °F 57 °F (2006)
Cooling Degree Days 12    
Growing Degree Days 26 (Base 50)    
Moisture  
Dew Point 67 °F    
Average Humidity 74    
Maximum Humidity 94    
Minimum Humidity 48    
Precipitation  
Precipitation 0.08 in 0.01 in - ()
Sea Level Pressure  
Sea Level Pressure 29.64 in    
Wind  
Wind Speed 2 mph ()    
Max Wind Speed 14 mph    
Max Gust Speed -    
Visibility 6.7 miles    
Events Rain    
Averages and records for this station are not official NWS values.
T = Trace of Precipitation, MM = Missing Value Source: Averaged Metar Reports

Daily Weather History Graph

Daily Weather History Graph

Search for Another Location

Airport or City:

Astronomy

Jun. 14, 2018 Rise Set
Actual Time 6:12 AM EEST 9:09 PM EEST
Civil Twilight 5:39 AM EEST 9:41 PM EEST
Nautical Twilight 4:58 AM EEST 10:22 PM EEST
Astronomical Twilight 4:10 AM EEST 11:10 PM EEST
Moon 6:51 AM EEST (6/14) 9:50 PM EEST (6/14)
Length of Visible Light 16h 02m
Length of Day
14h 57m
New Moon, 0% of the Moon is Illuminated
Jun 14
New Moon
Jun 20
First Quarter
Jun 28
Full
Jul 6
Last Quarter
Jul 13
New

Hourly Weather History & Observations

Time (EEST) Temp. Heat Index Dew Point Humidity Pressure Visibility Wind Dir Wind Speed Gust Speed Precip Events Conditions
12:00 AM 76 °F - 64 °F 57% 29.67 in 6 mi SW 2.3 mph - -   Scattered Clouds
12:20 AM 75.2 °F - 64.4 °F 69% 29.65 in 6.2 mi Calm Calm - N/A   Partly Cloudy
12:50 AM 75.2 °F - 64.4 °F 69% 29.65 in 6.2 mi Calm Calm - N/A   Partly Cloudy
1:20 AM 73.4 °F - 66.2 °F 78% 29.65 in 6.2 mi Calm Calm - N/A   Partly Cloudy
2:20 AM 71.6 °F - 64.4 °F 78% 29.65 in 6.2 mi Calm Calm - N/A   Partly Cloudy
2:50 AM 69.8 °F - 66.2 °F 88% 29.65 in 6.2 mi Calm Calm - N/A   Partly Cloudy
3:00 AM 70 °F - 65 °F 81% 29.66 in 6 mi Calm Calm - -   Scattered Clouds
3:20 AM 69.8 °F - 66.2 °F 88% 29.65 in 6.2 mi Calm Calm - N/A   Partly Cloudy
3:50 AM 69.8 °F - 66.2 °F 88% 29.65 in 6.2 mi Calm Calm - N/A   Partly Cloudy
4:20 AM 69.8 °F - 66.2 °F 88% 29.65 in 6.2 mi Calm Calm - N/A   Partly Cloudy
4:50 AM 69.8 °F - 66.2 °F 88% 29.62 in 6.2 mi Calm Calm - N/A   Partly Cloudy
5:20 AM 69.8 °F - 66.2 °F 88% 29.62 in 6.2 mi Calm Calm - N/A   Partly Cloudy
5:50 AM 69.8 °F - 68.0 °F 94% 29.62 in 6.2 mi Calm Calm - N/A   Scattered Clouds
6:00 AM 70 °F - 69 °F 94% 29.63 in 6 mi Calm Calm - -   Scattered Clouds
6:20 AM 69.8 °F - 68.0 °F 94% 29.62 in 6.2 mi Calm Calm - N/A   Scattered Clouds
6:50 AM 69.8 °F - 66.2 °F 88% 29.62 in 6.2 mi Calm Calm - N/A   Scattered Clouds
7:20 AM 69.8 °F - 66.2 °F 88% 29.62 in 6.2 mi Calm Calm - N/A   Partly Cloudy
7:50 AM 69.8 °F - 66.2 °F 88% 29.62 in 6.2 mi Calm Calm - N/A   Partly Cloudy
8:20 AM 71.6 °F - 68.0 °F 88% 29.62 in 6.2 mi Calm Calm - N/A   Partly Cloudy
8:50 AM 75.2 °F - 66.2 °F 73% 29.62 in 6.2 mi Calm Calm - N/A   Partly Cloudy
9:00 AM 75 °F - 67 °F 69% 29.64 in 12 mi Calm Calm - -   Scattered Clouds
9:20 AM 77.0 °F - 68.0 °F 74% 29.62 in 6.2 mi Calm Calm - N/A   Partly Cloudy
9:50 AM 77.0 °F - 66.2 °F 69% 29.62 in 6.2 mi SSE 4.6 mph - N/A   Partly Cloudy
10:20 AM 78.8 °F - 66.2 °F 65% 29.62 in 6.2 mi SSE 4.6 mph - N/A   Partly Cloudy
10:50 AM 80.6 °F 83.2 °F 68.0 °F 65% 29.62 in 6.2 mi SSE 5.8 mph - N/A   Partly Cloudy
11:20 AM 80.6 °F 83.2 °F 68.0 °F 65% 29.62 in 6.2 mi SSE 4.6 mph - N/A   Scattered Clouds
11:50 AM 78.8 °F - 68.0 °F 69% 29.65 in 6.2 mi SSE 4.6 mph - N/A   Scattered Clouds
12:00 PM 79 °F - 68 °F 62% 29.66 in 12 mi SSE 4.6 mph - -   Partly Cloudy
12:20 PM 78.8 °F - 68.0 °F 69% 29.65 in 6.2 mi SSE 5.8 mph - N/A   Scattered Clouds
12:50 PM 80.6 °F 83.2 °F 68.0 °F 65% 29.65 in 6.2 mi SSE 6.9 mph - N/A   Scattered Clouds
1:20 PM 80.6 °F 83.2 °F 68.0 °F 65% 29.65 in 6.2 mi SSE 8.1 mph - N/A   Scattered Clouds
1:50 PM 80.6 °F 83.2 °F 68.0 °F 65% 29.65 in 6.2 mi SSE 6.9 mph - N/A   Scattered Clouds
2:20 PM 80.6 °F 82.7 °F 66.2 °F 61% 29.65 in 6.2 mi SW 6.9 mph - N/A   Scattered Clouds
2:50 PM 84.2 °F 87.3 °F 68.0 °F 58% 29.65 in 6.2 mi WSW 9.2 mph - N/A   Scattered Clouds
3:00 PM 84 °F - 67 °F 48% 29.65 in 12 mi WSW 9.2 mph - -   Partly Cloudy
3:20 PM 84.2 °F 88.4 °F 69.8 °F 62% 29.62 in 6.2 mi South 11.5 mph - N/A   Scattered Clouds
3:50 PM 82.4 °F 83.9 °F 64.4 °F 54% 29.65 in 6.2 mi SSE 12.7 mph - N/A   Scattered Clouds
4:20 PM 82.4 °F 83.9 °F 64.4 °F 54% 29.62 in 6.2 mi South 9.2 mph - N/A   Scattered Clouds
4:50 PM 80.6 °F 82.3 °F 64.4 °F 58% 29.62 in 6.2 mi SSE 13.8 mph - N/A   Partly Cloudy
5:20 PM 80.6 °F 82.3 °F 64.4 °F 58% 29.62 in 6.2 mi SSE 9.2 mph - N/A   Partly Cloudy
5:50 PM 82.4 °F 84.6 °F 66.2 °F 58% 29.62 in 6.2 mi SSW 5.8 mph - N/A   Partly Cloudy
6:00 PM 82 °F - 65 °F 48% 29.65 in 12 mi SSW 5.8 mph - -   Scattered Clouds
6:20 PM 82.4 °F 84.6 °F 66.2 °F 58% 29.62 in 6.2 mi South 4.6 mph - N/A   Partly Cloudy
7:20 PM 78.8 °F - 66.2 °F 65% 29.65 in 6.2 mi West 6.9 mph - N/A   Scattered Clouds
7:50 PM 75.2 °F - 69.8 °F 83% 29.65 in 5.0 mi SW 2.3 mph - N/A Rain Rain Showers
8:20 PM 75.2 °F - 69.8 °F 83% 29.65 in 6.2 mi WSW 6.9 mph - N/A   Scattered Clouds
8:50 PM 75.2 °F - 69.8 °F 83% 29.65 in 6.2 mi West 4.6 mph - N/A   Scattered Clouds
9:00 PM 74 °F - 69 °F 79% 29.66 in 12 mi West 4.6 mph - - Rain Light Rain Showers
9:20 PM 73.4 °F - 69.8 °F 88% 29.65 in 6.2 mi Calm Calm - N/A   Partly Cloudy
10:20 PM 73.4 °F - 68.0 °F 83% 29.65 in 6.2 mi Calm Calm - N/A   Scattered Clouds
10:50 PM 73.4 °F - 68.0 °F 83% 29.65 in 6.2 mi SW 3.5 mph - N/A   Scattered Clouds
11:20 PM 73.4 °F - 68.0 °F 83% 29.65 in 6.2 mi Calm Calm - N/A   Scattered Clouds
11:50 PM 71.6 °F - 66.2 °F 83% 29.65 in 6.2 mi Calm Calm - N/A   Scattered Clouds